Regional Weather Roundup
Issued by NWS

Home | Current Version | Previous Version | Graphics & Text | Print | Product List | Glossary On
Versions: 1 2 3 4 5 6 7 8 9 10 11 12 13 14 15 16 17 18 19 20 21 22 23 24 25 26 27 28 29 30 31 32 33 34 35 36 37 38 39 40 41 42 43 44 45 46 47 48 49 50
000
ASUS43 KLOT 230503
RWRIL

ILLINOIS REGIONAL WEATHER ROUNDUP
NATIONAL WEATHER SERVICE CHICAGO/ROMEOVILLE IL
1100 PM CST SUN JAN 22 2017

NOTE: "FAIR" INDICATES FEW OR NO CLOUDS BELOW 12,000 FEET WITH NO
SIGNIFICANT WEATHER AND/OR OBSTRUCTIONS TO VISIBILITY.

* THESE STATIONS ARE NOT UNDER NWS QUALITY CONTROL. THEY ALSO MAY NOT
  REPORT WEATHER SUCH AS PRECIPITATION OR FOG.

ILZ001-002-007-009-015-016-024-230600-
NORTHWEST ILLINOIS

CITY           SKY/WX    TMP DP  RH WIND       PRES   REMARKS
MOLINE         CLOUDY    38  34  85 NW8       29.77R WCI  32
STERLING*      CLOUDY    38  36  92 NW8       29.76R WCI  32
SAVANNA*       CLOUDY    37  36  93 N5        29.77R WCI  34
$$

ILZ003-004-008-010-011-017-018-230600-
NORTH CENTRAL ILLINOIS

CITY           SKY/WX    TMP DP  RH WIND       PRES   REMARKS
ROCKFORD       CLOUDY    39  35  86 N7        29.76R FOG     WCI  34
FREEPORT*      CLOUDY    37  35  94 N3        29.77R
ROCHELLE*      CLOUDY    36  35  98 NW5       29.74R FOG     WCI  32
DE KALB*       CLOUDY    37  36  96 NW5       29.73R FOG     WCI  33
PERU*          CLOUDY    36  34  93 NW10      29.74R FOG     WCI  28
$$

ILZ005-006-012>014-019>023-230600-
NORTHEAST ILLINOIS

CITY           SKY/WX    TMP DP  RH WIND       PRES   REMARKS
CHICAGO-OHARE  CLOUDY    40  37  89 N9        29.69R
CHICAGO-MIDWAY CLOUDY    41  35  79 N8        29.68S
AURORA         CLOUDY    38  35  89 NW6       29.71R WCI  33
LANSING*       CLOUDY    39  38  97 N3        29.68R
JOLIET*        CLOUDY    41  39  93 NW5       29.69S FOG
WAUKEGAN       FOG       37  37 100 NE7       29.71R VSB 1/2 WCI  32
DUPAGE AIRPORT CLOUDY    39  35  86 N8        29.70R WCI  33
KANKAKEE*      CLOUDY    41  37  88 N8        29.67F
WHEELING       CLOUDY    40  37  89 N9        29.71S
MORRIS*        CLOUDY    38  37  94 N5        29.69S FOG     WCI  34
ROMEOVILLE*    CLOUDY    40  39  96 N9        29.68S
NORTHERLY ISL    N/A     39  38  96 N12         N/A  WCI  32
$$

LMZ740>746-230600-
SOUTHERN LAKE MICHIGAN

STATION/POSITION SKY/WX   TEMP    WIND        PRES    VSBY  WAVE
                          AIR SEA DIR/SP/G                  HT/PER
                          (F)     (DEG/KT/KT) (MB)    (MI)  (FT/S)
HARRISON CRIB              36     340/ 14/ 15   N/A
BURNHAM HARBOR             38     360/ 12       N/A
CALUMET HARBOR             35     330/  7/ 10 1004.7R
BURNS HARBOR               36     360/  8/  9 1005.4S
MICHIGAN CITY              35      10/  5/  6   N/A
$$

ILZ025>027-034>036-040-047-049-050-058-095>099-230600-
WEST-CENTRAL ILLINOIS

CITY           SKY/WX    TMP DP  RH WIND       PRES   REMARKS
QUINCY         CLOUDY    37  35  92 NW12      29.78R WCI  29
GALESBURG*     CLOUDY    35  35 100 NW8       29.76S FOG     WCI  29
MACOMB*        CLOUDY    36  35  96 NW12      29.79R WCI  28
JACKSONVILLE*  CLOUDY    38  35  90 NW10      29.75R WCI  30
PITTSFIELD*    DRIZZLE   38  35  91 NW10      29.78S WCI  30
$$

ILZ028>032-037-038-041>044-048-051>054-059>061-230600-
CENTRAL ILLINOIS

CITY           SKY/WX    TMP DP  RH WIND       PRES   REMARKS
BLOOMINGTON    CLOUDY    38  36  92 N14       29.70R FOG     WCI  30
DECATUR        CLOUDY    41  39  93 N16       29.68R
PEORIA         CLOUDY    39  36  89 N7        29.73S WCI  34
LACON*         CLOUDY    38  36  93 N6        29.73S WCI  33
LINCOLN*       CLOUDY    39  38  94 NW5       29.72R
SPRINGFIELD    CLOUDY    40  37  89 NW10      29.73R FOG
TAYLORVILLE    CLOUDY    39  37  90 NW12      29.70S WCI  32
$$

ILZ033-039-045-046-055>057-062-063-230600-
EAST-CENTRAL ILLINOIS

CITY           SKY/WX    TMP DP  RH WIND       PRES   REMARKS
CHAMPAIGN      CLOUDY    41  38  89 N15       29.65R FOG
RANTOUL*       CLOUDY    43  41  93 N9        29.66S
MATTOON        CLOUDY    42  40  92 N18       29.61F FOG
PARIS*         CLOUDY    43  42  97 N9G16     29.60S FOG
$$

ILZ079-100>102-230600-
SOUTHWEST ILLINOIS

CITY           SKY/WX    TMP DP  RH WIND       PRES   REMARKS
ALTON          CLOUDY    40  36  86 NW13G18   29.72S
BELLEVILLE     CLOUDY    43  38  84 NW20G26   29.67R
CAHOKIA*       CLOUDY    43  35  73 NW17      29.72R
SPARTA*        CLOUDY    44  36  74 NW18G24   29.67R
$$

ILZ064>066-069>071-074>076-080>082-084>086-088>090-092>094-230600-
SOUTH-CENTRAL ILLINOIS

CITY           SKY/WX    TMP DP  RH WIND       PRES   REMARKS
CARBONDALE     CLEAR     44  40  85 N16G24    29.60R
CAIRO*         MOCLDY    50  45  83 NW16G29   29.54R
EFFINGHAM*     CLOUDY    44  44  99 NW12G21   29.63S FOG
MARION         CLOUDY    46  43  87 NW9G18    29.59R
MT. VERNON     MOCLDY    44  40  85 VRB7      29.60R
CENTRALIA*     PTCLDY    43  39  86 N17G23    29.62S
SALEM*         PTCLDY    43  38  82 N18G26    29.62F
METROPOLIS*    CLOUDY    51  47  83 N16G24    29.53R
$$

ILZ067-068-072-073-078-083-087-091-230600-
SOUTHEAST ILLINOIS

CITY           SKY/WX    TMP DP  RH WIND       PRES   REMARKS
LAWRENCEVILLE  PTCLDY    49  47  93 N16       29.53R
FLORA*         CLOUDY    47  44  88 N14G20    29.59S FOG
FAIRFIELD*     CLOUDY    47  44  90 N12G18    29.55S FOG
HARRISBURG*    CLOUDY    48  45  88 N17G24    29.55R
ROBINSON*      CLOUDY    47  46  94 N13G23    29.56R FOG
CARMI*         CLOUDY    49  47  93 N16G24    29.52S FOG
$$

ABBREVIATIONS USED IN REMARKS
   TC - TEMPERATURE IN CELSIUS
  WCI - WIND CHILL INDEX
   HX - HEAT INDEX
  VSB - VISIBILITY
$$





USA.gov is the U.S. government's official web portal to all federal, state and local government web resources and services.